Regional Weather Roundup
Issued by NWS

Home | Current Version | Previous Version | Graphics & Text | Print | Product List | Glossary On
Versions: 1 2 3 4 5 6 7 8 9 10 11 12 13 14 15 16 17 18 19 20 21 22 23 24 25 26 27 28 29 30 31 32 33 34 35 36 37 38 39 40 41 42 43 44 45 46 47 48 49 50
000
ASUS43 KMKX 231414
RWRWI

WISCONSIN REGIONAL WEATHER ROUNDUP
NATIONAL WEATHER SERVICE MILWAUKEE/SULLIVAN WI
900 AM CDT SAT MAY 23 2015

NOTE: "FAIR" INDICATES FEW OR NO CLOUDS BELOW 12,000 FEET WITH NO
SIGNIFICANT WEATHER AND/OR OBSTRUCTIONS TO VISIBILITY.

WIZ001-002-006>008-014>016-023>028-231500-
NORTHWEST WISCONSIN

CITY           SKY/WX    TMP DP  RH WIND       PRES   REMARKS
SUPERIOR ARPT  SUNNY     66  42  40 SW7       30.22S
ASHLAND        SUNNY     67  41  38 SW8       30.23S
HAYWARD        SUNNY     64  40  41 SW3       30.25F
SIREN          SUNNY     64  42  43 SW3       30.24S
CUMBERLAND     SUNNY     59  43  55 CALM      30.25F
RICE LAKE      SUNNY     61  41  48 SE7       30.28S
CHETEK         SUNNY     59  45  59 CALM      30.27S
LADYSMITH      SUNNY     60  44  56 S5        30.29S
EAU CLAIRE     SUNNY     61  43  51 S5        30.26S
MENOMONIE      MOSUNNY   60  44  56 CALM      30.26S
NEW RICHMOND   MOSUNNY   63  42  46 SW6       30.25S
OSCEOLA        MOSUNNY   62  43  50 S3        30.28S
$$

WIZ003>005-009-010-017-018-231500-
NORTH CENTRAL WISCONSIN

CITY           SKY/WX    TMP DP  RH WIND       PRES   REMARKS
MANITOWISH WTR SUNNY     63  41  44 W8        30.26F
ARBOR VITAE    SUNNY     62  39  42 SW6       30.27S
WOODRUFF       SUNNY     62  39  42 SW6       30.27S
RHINELANDER    SUNNY     61  39  44 SW7       30.29S
EAGLE RIVER    SUNNY     63  33  32 SW9       30.27S
LAND O LAKES   SUNNY     65  33  29 SW7       30.27F
PHILLIPS       SUNNY     62  41  46 S8        30.27S
TOMAHAWK       SUNNY     60  44  54 CALM      30.29S
MEDFORD        SUNNY     60  44  55 CALM      30.29S
MERRILL        SUNNY     58  44  61 CALM      30.31R
$$

WIZ029-030-035-036-043>047-231500-
CENTRAL WISCONSIN

CITY           SKY/WX    TMP DP  RH WIND       PRES   REMARKS
WAUSAU         SUNNY     58  42  55 SW6       30.29S
MOSINEE        SUNNY     57  43  58 S7        30.31S
MARSHFIELD     SUNNY     62  41  46 SW8       30.29S
STEVENS POINT  SUNNY     59  36  42 S8        30.30F
WAUPACA        SUNNY     64  35  33 S7        30.32S
WAUTOMA        SUNNY     64  34  32 SW10      30.32S
WISC RAPIDS    SUNNY     62  37  39 S7        30.31S
CAMP DOUGLAS   MOSUNNY   63  43  48 S7        30.28S
$$

WIZ011>013-019>022-031-037>040-048>050-231500-
NORTHEAST WISCONSIN

CITY           SKY/WX    TMP DP  RH WIND       PRES   REMARKS
ANTIGO         SUNNY     58  43  56 SW5       30.30S
SHAWANO        SUNNY     61  36  39 SW7       30.31S
OCONTO         SUNNY     64  36  35 W12       30.30S
STURGEON BAY   SUNNY     61  34  36 SW14      30.34S
GREEN BAY      SUNNY     62  35  36 SW10      30.32S
MANITOWOC      SUNNY     62  34  35 SW6       30.33S
APPLETON       MOSUNNY   59  34  38 SW9       30.33S
CLINTONVILLE   MOSUNNY   61  32  33 SW10G17   30.31S
OSHKOSH        SUNNY     63  37  38 S14G20    30.32S
$$

WIZ032>034-041-042-053>061-231500-
SOUTHWEST WISCONSIN

CITY           SKY/WX    TMP DP  RH WIND       PRES   REMARKS
LA CROSSE      SUNNY     63  44  50 S9        30.28R
SPARTA         MOSUNNY   64  39  39 SW6       30.28S
VIROQUA        SUNNY     61  41  48 S8        30.29R
BOSCOBEL       MOSUNNY   63  45  51 VRB3      30.30S
PRAIRIE DU CHI SUNNY     61  41  48 SE3       30.29S
PLATTEVILLE    MOSUNNY   62  41  46 SE8       30.31R
$$

WIZ056-057-062-063-064-067-068-231500-
SOUTH CENTRAL WISCONSIN

CITY           SKY/WX    TMP DP  RH WIND       PRES   REMARKS
REEDSBURG      SUNNY     63  39  42 S9        30.30S
BARABOO/DELLS  SUNNY     64  33  32 S9        30.30F
LONE ROCK      MOSUNNY   63  39  41 CALM      30.31R
MINERAL POINT    N/A     61  37  41 SE6       30.31S
MADISON        MOSUNNY   62  36  37 S8        30.32S
MIDDLETON      SUNNY     66  28  24 S9        30.32S
WATERTOWN      SUNNY     63  38  39 S8        30.33R
MONROE         MOSUNNY   63  37  39 S14       30.31S
JANESVILLE     SUNNY     64  36  34 S9        30.32S
$$

WIZ051-052-058>065-066-070>072-231500-
SOUTHEAST WISCONSIN

CITY           SKY/WX    TMP DP  RH WIND       PRES   REMARKS
MILWAUKEE      MOSUNNY   63  33  32 S13       30.34S
WAUKESHA       MOSUNNY   61  32  33 SW7       30.35R
MILWAUKEE/TIMM SUNNY     63  23  22 S10       30.34S
RACINE         SUNNY     65  32  29 S7        30.36R
BURLINGTON     SUNNY     64  35  34 SE8       30.34R
KENOSHA        SUNNY     64  36  35 S8        30.34S
FOND DU LAC    SUNNY     64  34  32 SW13      30.33R
SHEBOYGAN      SUNNY     65  31  28 SW15      30.33S
WEST BEND      SUNNY     64  28  25 S8        30.34R
JUNEAU         SUNNY     62  35  37 S12G17    30.35R
$$

LSZ147-162-231500-
LAKE SUPERIOR

STATION/POSITION TIME  TEMP    WIND        PRES    WAVE
                       AIR SEA DIR/SP/G            HT/PER
                 (UTC) (F)     (DEG/KT/KT) (MB)    (FT/S)
W MID LAKE BUOY  1350   42 36  220/ 14/ 14   N/A     1/ 3
DEVILS ISLAND    1400   48     240/ 14/ 16   N/A
PORT WING        1300   60     250/  4/  8   N/A
SAXON HARBOR     1300   63     200/  8/ 10   N/A
$$

LMZ867-665-643>646-231500-
LAKE MICHIGAN

STATION/POSITION TIME  TEMP    WIND        PRES    WAVE
                       AIR SEA DIR/SP/G            HT/PER
                 (UTC) (F)     (DEG/KT/KT) (MB)    (FT/S)
CHAMBERS ISLAND  1300   54     190/  8/ 14   N/A
N MID LAKE BUOY  1350   40 36  200/ 14/ 16   N/A     1/ 3
NORTHPORT PIER   1300   58     210/  8/ 18   N/A
SISTER BAY       1332   60     210/ 12/ 16   N/A
KEWAUNEE LAKESHO 1300   47     180/  6/  7   N/A
SHEBOYGAN LAKESH 1400   49     160/ 12/ 13   N/A
PORT WASHINGTON  1200   51     170/  5/  6   N/A
ATWATER BUOY     1300   50 45  120/  4/  4   N/A
MILWAUKEE LAKESH 1300   56     180/  5/  6   N/A
S MID LAKE BUOY  1350   42 38  200/  4/  6   N/A     0
KENOSHA   LAKESH 1400   54     170/  5/  8   N/A
$$

TC  - TEMPERATURE IN CELSIUS
VSB - VISIBILITY IN STATUTE MILES
WCI - WIND CHILL INDEX
HX  - HEAT INDEX




USA.gov is the U.S. government's official web portal to all federal, state and local government web resources and services.